This demonstration page uses our WeatherBlox Daily Observations layout. Learn more.

Left ArrowRight Arrow

Hourly Observations for August 18, 2020

Temp ( °F °C ) Dew Point ( °F °C ) Humidity (%) Winds ( mph kmh ) Pressure ( in mb ) Visibility ( mi km ) Precip ( " mm )
12:54 am 00:54 Clear 66 18.9 62 16.7 87 87 N 3 6 30.13 1020 10 16.0934 0 0
1:54 am 01:54 Clear 62 16.7 59 15 90 90 N 3 6 30.12 1020 10 16.0934 0 0
2:54 am 02:54 Clear 61 16.1 59 15 93 93 Calm 30.13 1020 10 16.0934 0 0
3:54 am 03:54 Clear 59 15 57 13.9 93 93 N 5 7 30.13 1020 10 16.0934 0 0
4:54 am 04:54 Clear 59 15 57 13.9 93 93 Calm 30.12 1020 10 16.0934 0 0
5:54 am 05:54 Clear 58 14.4 56 13.3 93 93 Calm 30.11 1020 10 16.0934 0 0
6:54 am 06:54 Sunny 56 13.3 53 11.7 90 90 N 3 6 30.14 1021 9 14.48406 0 0
7:54 am 07:54 Sunny 62 16.7 58 14.4 86 86 NNW 3 6 30.16 1021 9 14.48406 0 0
8:54 am 08:54 Sunny 67 19.4 61 16.1 81 81 undefined N/A 30.16 1021 9 14.48406 0 0
9:54 am 09:54 Sunny 71 21.7 62 16.7 73 73 SSE 5 7 30.16 1022 9 14.48406 0 0
10:54 am 10:54 Sunny 73 22.8 60 15.6 64 64 S 3 6 30.16 1021 10 16.0934 0 0
11:54 am 11:54 Sunny 76 24.4 61 16.1 60 60 S 7 11 30.14 1021 10 16.0934 0 0
12:54 pm 12:54 Sunny 77 25 62 16.7 60 60 SSW 6 9 30.13 1020 10 16.0934 0 0
1:54 pm 13:54 Sunny 80 26.7 63 17.2 56 56 VRB 7 11 30.11 1020 10 16.0934 0 0
2:54 pm 14:54 Sunny 79 26.1 63 17.2 58 58 SSE 8 13 30.09 1019 10 16.0934 0 0
3:54 pm 15:54 Sunny 81 27.2 63 17.2 54 54 S 7 11 30.08 1019 10 16.0934 0 0
4:54 pm 16:54 Sunny 82 27.8 62 16.7 51 51 SSE 6 9 30.05 1018 10 16.0934 0 0
5:54 pm 17:54 Sunny 81 27.2 62 16.7 53 53 undefined N/A 30.05 1018 10 16.0934 0 0
6:54 pm 18:54 Sunny 80 26.7 62 16.7 54 54 ESE 7 11 30.05 1018 10 16.0934 0 0
7:54 pm 19:54 Sunny 77 25 62 16.7 60 60 ESE 7 11 30.05 1018 10 16.0934 0 0
8:54 pm 20:54 Clear 74 23.3 61 16.1 64 64 SE 5 7 30.05 1018 10 16.0934 0 0
9:54 pm 21:54 Clear 70 21.1 62 16.7 76 76 S 5 7 30.06 1018 10 16.0934 0 0
10:54 pm 22:54 Clear 70 21.1 62 16.7 76 76 Calm 30.06 1018 10 16.0934 0 0
11:54 pm 23:54 Clear 68 20 62 16.7 81 81 Calm 30.07 1018 10 16.0934 0 0

Powered by AerisWeather